Regional Weather Roundup
Issued by NWS Charleston, SC

Current Version | Previous Version | Graphics & Text | Print | Product List | Glossary On
Versions: 1 2 3 4 5 6 7 8 9 10 11 12 13 14 15 16 17 18 19 20 21 22 23 24 25 26 27 28 29 30 31 32 33 34 35 36 37 38 39 40 41 42 43 44 45 46 47 48 49 50
000 ASUS42 KCHS 041611 RWRCHS REGIONAL WEATHER ROUNDUP NATIONAL WEATHER SERVICE CHARLESTON SC 1100 AM EST WED MAR 04 2015 NOTE: "FAIR" INDICATES FEW OR NO CLOUDS BELOW 12,000 FEET WITH NO SIGNIFICANT WEATHER AND/OR OBSTRUCTIONS TO VISIBILITY. NOT ALL STATIONS ARE QUALITY CONTROLLED BY THE NATIONAL WEATHER SERVICE. USE DATA WITH CAUTION...ESPECIALLY DEWPOINT OBSERVATIONS. SCZ027-030-031-034>040-042>050-041700- ...SOUTHEAST SOUTH CAROLINA... CITY SKY/WX TMP DP RH WIND PRES REMARKS N CHARLESTON PTSUNNY 71 63 75 SW17G26 30.11F WATERFRONT PRK N/A 66 N/A N/A SW14G21 N/A MOUNT PLEASANT NOT AVBL PINOPOLIS NOT AVBL MONCKS CORNER CLOUDY 77 66 69 SW14G20 30.08F SUMMERVILLE CLOUDY 73 66 78 S8 30.10S BEAUFORT MCAS PTSUNNY 76 65 68 SW8G20 30.10F BEAUFORT ARPT PTSUNNY 70 66 88 SW8 30.11F HILTON HEAD IS SUNNY 70 64 83 S9G17 30.13F WALTERBORO CLOUDY 73 66 78 SW13G18 30.10F ALLENDALE CLOUDY 75 64 69 VRB6G14 30.08F ...SOUTHERN MIDLANDS AND PEE DEE... CITY SKY/WX TMP DP RH WIND PRES REMARKS GEORGETOWN NOT AVBL KINGSTREE NOT AVBL ORANGEBURG CLOUDY 69 62 78 SW12 30.07F BARNWELL FAIR 73 64 73 SW12 30.08F AIKEN PTSUNNY 64 64 100 SW9G17 30.10S MANNING CLOUDY N/A N/A N/A SW7 30.08F COLUMBIA MOSUNNY 73 60 63 SW13G22 30.04F SUMTER NOT AVBL FLORENCE CLOUDY 68 61 78 SW10 30.05F MYRTLE BEACH MOSUNNY 66 61 82 S16 30.11F N MYRTLE BEACH FOG 59 57 93 SW20 30.08F VSB 1/2 $$ GAZ063-065-086>088-099>101-113>116-118-119-134>141-150-041700- ...SOUTHEAST GEORGIA... CITY SKY/WX TMP DP RH WIND PRES REMARKS SAVANNAH ARPT MOSUNNY 78 62 57 SW12 30.11F HUNTER AAF NOT AVBL FORT STEWART NOT AVBL STATESBORO NOT AVBL SYLVANIA MOSUNNY 76 64 67 SW12 30.10F CLAXTON FAIR 75 64 69 SW10 30.11F ...CSRA...CENTRAL AND FAR SOUTHEAST GEORGIA... CITY SKY/WX TMP DP RH WIND PRES REMARKS THOMSON NOT AVBL AUGUSTA-BUSH MOSUNNY 71 62 73 SW12G20 30.07S AUGUSTA-DANIEL SUNNY 72 62 71 SW9G21 30.07F SWAINSBORO NOT AVBL VIDALIA MOSUNNY 77 63 61 W14 30.12S EASTMAN CLOUDY 67 67 97 W8 30.15S HAZLEHURST NOT AVBL ALMA MOSUNNY 76 61 59 SW15 30.12S WAYCROSS SUNNY 80 67 62 SW16 30.13S JESUP NOT AVBL BAXLEY FAIR 77 63 61 SW10G16 30.12S BRUNSWICK NOT AVBL SAINT SIMONS PTSUNNY 69 62 78 S8 30.14F $$ SCZ027-028-034-036>038-045-046-048>050-GAZ119-141-041700- ...LAKE AND SUPPLEMENTAL COASTAL OBSERVATIONS... STATION/POSITION TIME TEMP WIND PRES WAVE SWELL AIR SEA DIR/SP/G HT/PER HT/PER/DIR (UTC) (F) (DEG/KT/KT) (MB) (FT/S) (FT/S/D) UPR LAKE MARION NOT AVBL WINYAH BAY 1445 67 210/ 15 1018.0 LAKE MURRAY 1500 56 200/ 5/ 5 1017.6S ACE BASIN NERRS NOT AVBL FORT PULASKI 1500 65 50 200/ 8/ 13 1020.8F SAPELO ISLAND 1500 72 200/ 12 1021.0S $$ ANZ835-935-AMZ111-154-330-350-352-354-370-450-454-472-041700- ...C-MAN AND BUOY OBSERVATIONS... STATION/POSITION TIME TEMP WIND PRES WAVE SWELL AIR SEA DIR/SP/G HT/PER HT/PER/DIR (UTC) (F) (DEG/KT/KT) (MB) (FT/S) (FT/S/D) BUOY 41004 1550 69 69 220/ 16/ 17 1019.6F 5/ 6 BUOY 41008 1550 57 54 190/ 10/ 12 1020.7F 2/ 9 2/100/ 9 FOLLY BEACH CMAN 1500 55 220/ 9/ 11 1020.7F CAPERS NEARSHORE 1500 52 250/ 8/ 10 N/A FRIPP NEARSHORE 1500 53 210/ 8/ 10 1019.9F STATION/POSITION TIME TEMP WIND PRES WAVE SWELL AIR SEA DIR/SP/G HT/PER HT/PER/DIR (UTC) (F) (DEG/KT/KT) (MB) (FT/S) (FT/S/D) 5E ST. MARYS GA 1521 55 N/A 2/10 FRYING PAN BUOY 1550 65 62 220/ 6/ 8 1020.1F 5/ 7 5/120/ 7 BUOY 41025 NOT AVBL CAPE LOOKOUT NC 1500 62 220/ 12/ 15 1018.4F BUOY 41002 1550 72 73 220/ 16/ 19 1023.5F 6/ 9 3/120/ 9 BUOY 41010 1520 74 75 160/ 12/ 14 1023.4R ST AUGUSTINE FL 1500 60 130/ 5/ 5 1022.5F $$

USA.gov is the U.S. government's official web portal to all federal, state and local government web resources and services.